Tracking 19280 objects as of 14-Nov-2018
HD Live streaming from Space Station
objects crossing your sky now

AMAZONAS 2

Track AMAZONAS 2 now!
AMAZONAS 2 is classified as:


NORAD ID: 35942
Int'l Code: 2009-054A
Perigee: 35,778.1 km
Apogee: 35,811.6 km
Inclination: 0.0 °
Period: 1,436.2 minutes
Semi major axis: 42165 km
RCS: 8.2771 m2 (large)
Launch date: September 30, 2009
Source: Spain (SPN)
Launch site: FRENCH GUIANA (FRGUI)

Amazonas 2 was built by Astrium based on its Eurostar E3000 satellite bus, for on-orbit delivery in 2009. Amazonas 2 will be operated from at 61° West, providing relay services with 54 Ku band and 10 C band transponders.
aabbcc
Your satellite tracking list
Your tracking list is empty




NASA's NSSDC Master Catalog

Two Line Element Set (TLE):
1 35942U 09054A   18317.93822097 -.00000282 +00000-0 +00000-0 0  9994
2 35942 000.0438 117.1326 0003963 081.3997 131.2461 01.00267814033383
Source of the keplerian elements: AFSPC